星链-34198 (STARLINK-34198)

导读 | 豆包AI

STARLINK-34198是美国太空探索技术公司(SpaceX)发射的星链卫星,发射于2025年6月13日,属于Starlink星链互联网星座。星链项目旨在构建全球卫星互联网,为全球范围提供高速低延迟的宽带网络服务,覆盖偏远、基础设施匮乏区域等,此卫星的发射进一步完善了星链星座的全球服务覆盖能力与网络容量。

基本信息
目录编号:
64388
目录名称:
STARLINK-34198
国际标识:
2025-127U
轨道中心:
EARTH
卫星名称:
星链-34198
卫星全名:
星链-34198 (STARLINK-34198)
卫星状态:
在轨 (已飞行274 天)
发射日期:
2025-06-13 UTC
国别 :
美国 (US)
星等 :
--
轨道信息
数据来源 国际轨道数据
星历时间: 2026-03-13T15:13:55+0800
1天前
查看轨道信息
半长轴: 6861.028km
偏心率: 0.0001213
轨道倾角: 42.998°
近地点辐角 205.161°
升交点赤经 159.016°
平近点角 154.918°
近地点: 482.058km
远地点: 483.724km
周期: 94.263分钟
每日圈数: 15.276331
详细信息
固有亮度:
5
最大亮度:
2.5
卫星平台:
Starlink V1.0
覆盖范围:
全球
运营商:
太空探索技术公司
运营商所在国:
美国
制造商(研发单位):
太空探索技术公司
制造商所在国:
美国
使用方式:
暂无
卫星简介
Starlink 计划是 SpaceX 推出的全球卫星互联网项目,通过发射低轨道卫星,为全球尤其是偏远地区提供高速、低延迟的互联网服务。自 2019 年起,Starlink 已部署数千颗卫星,旨在缩小全球数字鸿沟,推动互联网普及。该项目还为军事、航空等行业提供通信支持,带来广泛经济效益。
2D轨道图
3D轨道图
轨道高度分析图
轨道倾角分析图
轨道综合分析图
查看轨道综合分析图